Year,Month,Day,Hour,Minute,Value (Times are PST for temperature in C)
2015,09,14,00,00,12.00
2015,09,14,00,01,12.00
2015,09,14,00,02,11.90
2015,09,14,00,03,11.90
2015,09,14,00,04,11.90
2015,09,14,00,05,11.90
2015,09,14,00,06,11.90
2015,09,14,00,07,11.90
2015,09,14,00,08,11.90
2015,09,14,00,09,11.90
2015,09,14,00,10,11.90
2015,09,14,00,11,11.80
2015,09,14,00,12,11.80
2015,09,14,00,13,11.80
2015,09,14,00,14,11.80
2015,09,14,00,15,11.80
2015,09,14,00,16,11.80
2015,09,14,00,17,11.80
2015,09,14,00,18,11.80
2015,09,14,00,19,11.80
2015,09,14,00,20,11.80
2015,09,14,00,21,11.80
2015,09,14,00,22,11.80
2015,09,14,00,23,11.80
2015,09,14,00,24,11.80
2015,09,14,00,25,11.80
2015,09,14,00,26,11.80
2015,09,14,00,27,11.80
2015,09,14,00,28,11.70
2015,09,14,00,29,11.70
2015,09,14,00,30,11.70
2015,09,14,00,31,11.70
2015,09,14,00,32,11.70
2015,09,14,00,33,11.60
2015,09,14,00,34,11.60
2015,09,14,00,35,11.60
2015,09,14,00,36,11.60
2015,09,14,00,37,11.60
2015,09,14,00,38,11.60
2015,09,14,00,39,11.60
2015,09,14,00,40,11.60
2015,09,14,00,41,11.60
2015,09,14,00,42,11.60
2015,09,14,00,43,11.60
2015,09,14,00,44,11.60
2015,09,14,00,45,11.60
2015,09,14,00,46,11.50
2015,09,14,00,47,11.40
2015,09,14,00,48,11.40
2015,09,14,00,49,11.40
2015,09,14,00,50,11.40
2015,09,14,00,51,11.40
2015,09,14,00,52,11.40
2015,09,14,00,53,11.40
2015,09,14,00,54,11.40
2015,09,14,00,55,11.40
2015,09,14,00,56,11.40
2015,09,14,00,57,11.40
2015,09,14,00,58,11.40
2015,09,14,00,59,11.40
2015,09,14,01,00,11.30
2015,09,14,01,01,11.30
2015,09,14,01,02,11.30
2015,09,14,01,03,11.30
2015,09,14,01,04,11.30
2015,09,14,01,05,11.30
2015,09,14,01,06,11.30
2015,09,14,01,07,11.20
2015,09,14,01,08,11.20
2015,09,14,01,09,11.20
2015,09,14,01,10,11.20
2015,09,14,01,11,11.20
2015,09,14,01,12,11.20
2015,09,14,01,13,11.20
2015,09,14,01,14,11.20
2015,09,14,01,15,11.20
2015,09,14,01,16,11.20
2015,09,14,01,17,11.20
2015,09,14,01,18,11.20
2015,09,14,01,19,11.20
2015,09,14,01,20,11.20
2015,09,14,01,21,11.20
2015,09,14,01,22,11.20
2015,09,14,01,23,11.20
2015,09,14,01,24,11.20
2015,09,14,01,25,11.20
2015,09,14,01,26,11.20
2015,09,14,01,27,11.20
2015,09,14,01,28,11.20
2015,09,14,01,29,11.20
2015,09,14,01,30,11.20
2015,09,14,01,31,11.20
2015,09,14,01,32,11.20
2015,09,14,01,33,11.20
2015,09,14,01,34,11.20
2015,09,14,01,35,11.20
2015,09,14,01,36,11.20
2015,09,14,01,37,11.20
2015,09,14,01,38,11.20
2015,09,14,01,39,11.20
2015,09,14,01,40,11.20
2015,09,14,01,41,11.20
2015,09,14,01,42,11.20
2015,09,14,01,43,11.20
2015,09,14,01,44,11.20
2015,09,14,01,45,11.20
2015,09,14,01,46,11.20
2015,09,14,01,47,11.20
2015,09,14,01,48,11.20
2015,09,14,01,49,11.20
2015,09,14,01,50,11.20
2015,09,14,01,51,11.20
2015,09,14,01,52,11.20
2015,09,14,01,53,11.20
2015,09,14,01,54,11.20
2015,09,14,01,55,11.20
2015,09,14,01,56,11.20
2015,09,14,01,57,11.20
2015,09,14,01,58,11.20
2015,09,14,01,59,11.20
2015,09,14,02,00,11.20
2015,09,14,02,01,11.20
2015,09,14,02,02,11.20
2015,09,14,02,03,11.20
2015,09,14,02,04,11.20
2015,09,14,02,05,11.20
2015,09,14,02,06,11.20
2015,09,14,02,07,11.20
2015,09,14,02,08,11.20
2015,09,14,02,09,11.20
2015,09,14,02,10,11.20
2015,09,14,02,11,11.20
2015,09,14,02,12,11.20
2015,09,14,02,13,11.20
2015,09,14,02,14,11.20
2015,09,14,02,15,11.20
2015,09,14,02,16,11.20
2015,09,14,02,17,11.20
2015,09,14,02,18,11.20
2015,09,14,02,19,11.20
2015,09,14,02,20,11.20
2015,09,14,02,21,11.20
2015,09,14,02,22,11.20
2015,09,14,02,23,11.20
2015,09,14,02,24,11.20
2015,09,14,02,25,11.20
2015,09,14,02,26,11.20
2015,09,14,02,27,11.20
2015,09,14,02,28,11.20
2015,09,14,02,29,11.20
2015,09,14,02,30,11.20
2015,09,14,02,31,11.20
2015,09,14,02,32,11.20
2015,09,14,02,33,11.20
2015,09,14,02,34,11.20
2015,09,14,02,35,11.20
2015,09,14,02,36,11.20
2015,09,14,02,37,11.20
2015,09,14,02,38,11.20
2015,09,14,02,39,11.20
2015,09,14,02,40,11.20
2015,09,14,02,41,11.20
2015,09,14,02,42,11.20
2015,09,14,02,43,11.20
2015,09,14,02,44,11.20
2015,09,14,02,45,11.20
2015,09,14,02,46,11.20
2015,09,14,02,47,11.20
2015,09,14,02,48,11.20
2015,09,14,02,49,11.20
2015,09,14,02,50,11.20
2015,09,14,02,51,11.10
2015,09,14,02,52,11.10
2015,09,14,02,53,11.10
2015,09,14,02,54,11.10
2015,09,14,02,55,11.10
2015,09,14,02,56,11.10
2015,09,14,02,57,11.10
2015,09,14,02,58,11.10
2015,09,14,02,59,11.10
2015,09,14,03,00,11.10
2015,09,14,03,01,11.20
2015,09,14,03,02,11.20
2015,09,14,03,03,11.20
2015,09,14,03,04,11.20
2015,09,14,03,05,11.10
2015,09,14,03,06,11.10
2015,09,14,03,07,11.10
2015,09,14,03,08,11.10
2015,09,14,03,09,11.10
2015,09,14,03,10,11.10
2015,09,14,03,11,11.10
2015,09,14,03,12,11.10
2015,09,14,03,13,11.10
2015,09,14,03,14,11.10
2015,09,14,03,15,11.00
2015,09,14,03,16,10.90
2015,09,14,03,17,10.90
2015,09,14,03,18,10.90
2015,09,14,03,19,10.90
2015,09,14,03,20,10.90
2015,09,14,03,21,10.90
2015,09,14,03,22,10.90
2015,09,14,03,23,10.90
2015,09,14,03,24,10.90
2015,09,14,03,25,10.90
2015,09,14,03,26,10.90
2015,09,14,03,27,10.90
2015,09,14,03,28,10.90
2015,09,14,03,29,10.90
2015,09,14,03,30,10.90
2015,09,14,03,31,10.90
2015,09,14,03,32,10.90
2015,09,14,03,33,10.90
2015,09,14,03,34,10.90
2015,09,14,03,35,10.80
2015,09,14,03,36,10.80
2015,09,14,03,37,10.80
2015,09,14,03,38,10.80
2015,09,14,03,39,10.80
2015,09,14,03,40,10.70
2015,09,14,03,41,10.70
2015,09,14,03,42,10.70
2015,09,14,03,43,10.60
2015,09,14,03,44,10.60
2015,09,14,03,45,10.60
2015,09,14,03,46,10.60
2015,09,14,03,47,10.60
2015,09,14,03,48,10.60
2015,09,14,03,49,10.60
2015,09,14,03,50,10.60
2015,09,14,03,51,10.50
2015,09,14,03,52,10.40
2015,09,14,03,53,10.40
2015,09,14,03,54,10.40
2015,09,14,03,55,10.40
2015,09,14,03,56,10.40
2015,09,14,03,57,10.40
2015,09,14,03,58,10.30
2015,09,14,03,59,10.30
2015,09,14,04,00,10.30
2015,09,14,04,01,10.40
2015,09,14,04,02,10.40
2015,09,14,04,03,10.40
2015,09,14,04,04,10.40
2015,09,14,04,05,10.50
2015,09,14,04,06,10.60
2015,09,14,04,07,10.60
2015,09,14,04,08,10.70
2015,09,14,04,09,10.70
2015,09,14,04,10,10.80
2015,09,14,04,11,10.80
2015,09,14,04,12,10.80
2015,09,14,04,13,10.90
2015,09,14,04,14,10.90
2015,09,14,04,15,10.90
2015,09,14,04,16,10.90
2015,09,14,04,17,10.90
2015,09,14,04,18,10.90
2015,09,14,04,19,10.90
2015,09,14,04,20,10.90
2015,09,14,04,21,10.90
2015,09,14,04,22,10.90
2015,09,14,04,23,10.90
2015,09,14,04,24,10.90
2015,09,14,04,25,10.90
2015,09,14,04,26,10.90
2015,09,14,04,27,10.90
2015,09,14,04,28,10.90
2015,09,14,04,29,10.90
2015,09,14,04,30,10.90
2015,09,14,04,31,10.90
2015,09,14,04,32,10.90
2015,09,14,04,33,10.90
2015,09,14,04,34,10.90
2015,09,14,04,35,11.00
2015,09,14,04,36,11.10
2015,09,14,04,37,11.10
2015,09,14,04,38,11.10
2015,09,14,04,39,11.10
2015,09,14,04,40,11.10
2015,09,14,04,41,11.20
2015,09,14,04,42,11.20
2015,09,14,04,43,11.20
2015,09,14,04,44,11.30
2015,09,14,04,45,11.40
2015,09,14,04,46,11.40
2015,09,14,04,47,11.40
2015,09,14,04,48,11.40
2015,09,14,04,49,11.40
2015,09,14,04,50,11.40
2015,09,14,04,51,11.40
2015,09,14,04,52,11.40
2015,09,14,04,53,11.40
2015,09,14,04,54,11.40
2015,09,14,04,55,11.20
2015,09,14,04,56,11.10
2015,09,14,04,57,10.90
2015,09,14,04,58,10.90
2015,09,14,04,59,10.90
2015,09,14,05,00,10.80
2015,09,14,05,01,10.70
2015,09,14,05,02,10.60
2015,09,14,05,03,10.60
2015,09,14,05,04,10.60
2015,09,14,05,05,10.60
2015,09,14,05,06,10.50
2015,09,14,05,07,10.40
2015,09,14,05,08,10.40
2015,09,14,05,09,10.40
2015,09,14,05,10,10.40
2015,09,14,05,11,10.40
2015,09,14,05,12,10.40
2015,09,14,05,13,10.40
2015,09,14,05,14,10.30
2015,09,14,05,15,10.30
2015,09,14,05,16,10.30
2015,09,14,05,17,10.30
2015,09,14,05,18,10.30
2015,09,14,05,19,10.30
2015,09,14,05,20,10.40
2015,09,14,05,21,10.40
2015,09,14,05,22,10.40
2015,09,14,05,23,10.40
2015,09,14,05,24,10.50
2015,09,14,05,25,10.60
2015,09,14,05,26,10.60
2015,09,14,05,27,10.60
2015,09,14,05,28,10.60
2015,09,14,05,29,10.70
2015,09,14,05,30,10.70
2015,09,14,05,31,10.70
2015,09,14,05,32,10.80
2015,09,14,05,33,10.80
2015,09,14,05,34,10.80
2015,09,14,05,35,10.80
2015,09,14,05,36,10.80
2015,09,14,05,37,10.80
2015,09,14,05,38,10.80
2015,09,14,05,39,10.80
2015,09,14,05,40,10.80
2015,09,14,05,41,10.80
2015,09,14,05,42,10.80
2015,09,14,05,43,10.70
2015,09,14,05,44,10.70
2015,09,14,05,45,10.70
2015,09,14,05,46,10.60
2015,09,14,05,47,10.60
2015,09,14,05,48,10.60
2015,09,14,05,49,10.50
2015,09,14,05,50,10.40
2015,09,14,05,51,10.40
2015,09,14,05,52,10.40
2015,09,14,05,53,10.40
2015,09,14,05,54,10.30
2015,09,14,05,55,10.20
2015,09,14,05,56,10.20
2015,09,14,05,57,10.20
2015,09,14,05,58,10.10
2015,09,14,05,59,10.10
2015,09,14,06,00,10.10
2015,09,14,06,01,10.10
2015,09,14,06,02,10.00
2015,09,14,06,03,9.90
2015,09,14,06,04,9.90
2015,09,14,06,05,9.90
2015,09,14,06,06,9.90
2015,09,14,06,07,9.90
2015,09,14,06,08,9.90
2015,09,14,06,09,9.90
2015,09,14,06,10,9.90
2015,09,14,06,11,9.90
2015,09,14,06,12,9.90
2015,09,14,06,13,9.90
2015,09,14,06,14,9.90
2015,09,14,06,15,9.90
2015,09,14,06,16,9.90
2015,09,14,06,17,9.90
2015,09,14,06,18,9.90
2015,09,14,06,19,9.90
2015,09,14,06,20,9.90
2015,09,14,06,21,9.90
2015,09,14,06,22,9.80
2015,09,14,06,23,9.80
2015,09,14,06,24,9.80
2015,09,14,06,25,9.80
2015,09,14,06,26,9.80
2015,09,14,06,27,9.80
2015,09,14,06,28,9.80
2015,09,14,06,29,9.80
2015,09,14,06,30,9.80
2015,09,14,06,31,9.80
2015,09,14,06,32,9.80
2015,09,14,06,33,9.80
2015,09,14,06,34,9.80
2015,09,14,06,35,9.80
2015,09,14,06,36,9.80
2015,09,14,06,37,9.80
2015,09,14,06,38,9.80
2015,09,14,06,39,9.80
2015,09,14,06,40,9.90
2015,09,14,06,41,9.90
2015,09,14,06,42,9.90
2015,09,14,06,43,9.90
2015,09,14,06,44,9.90
2015,09,14,06,45,9.90
2015,09,14,06,46,9.90
2015,09,14,06,47,9.90
2015,09,14,06,48,9.90
2015,09,14,06,49,9.90
2015,09,14,06,50,9.90
2015,09,14,06,51,9.90
2015,09,14,06,52,9.90
2015,09,14,06,53,9.90
2015,09,14,06,54,9.90
2015,09,14,06,55,9.90
2015,09,14,06,56,9.90
2015,09,14,06,57,9.90
2015,09,14,06,58,9.90
2015,09,14,06,59,9.90
2015,09,14,07,00,9.90
2015,09,14,07,01,9.90
2015,09,14,07,02,9.90
2015,09,14,07,03,9.80
2015,09,14,07,04,9.80
2015,09,14,07,05,9.80
2015,09,14,07,06,9.80
2015,09,14,07,07,9.80
2015,09,14,07,08,9.80
2015,09,14,07,09,9.80
2015,09,14,07,10,9.80
2015,09,14,07,11,9.80
2015,09,14,07,12,9.80
2015,09,14,07,13,9.80
2015,09,14,07,14,9.80
2015,09,14,07,15,9.70
2015,09,14,07,16,9.80
2015,09,14,07,17,9.80
2015,09,14,07,18,9.80
2015,09,14,07,19,9.80
2015,09,14,07,20,9.80
2015,09,14,07,21,9.80
2015,09,14,07,22,9.80
2015,09,14,07,23,9.80
2015,09,14,07,24,9.80
2015,09,14,07,25,9.80
2015,09,14,07,26,9.80
2015,09,14,07,27,9.90
2015,09,14,07,28,9.90
2015,09,14,07,29,9.90
2015,09,14,07,30,9.90
2015,09,14,07,31,9.90
2015,09,14,07,32,9.90
2015,09,14,07,33,9.90
2015,09,14,07,34,9.90
2015,09,14,07,35,9.90
2015,09,14,07,36,9.90
2015,09,14,07,37,9.90
2015,09,14,07,38,9.90
2015,09,14,07,39,9.90
2015,09,14,07,40,9.90
2015,09,14,07,41,9.90
2015,09,14,07,42,9.90
2015,09,14,07,43,9.90
2015,09,14,07,44,9.90
2015,09,14,07,45,9.90
2015,09,14,07,46,9.90
2015,09,14,07,47,9.90
2015,09,14,07,48,10.00
2015,09,14,07,49,10.10
2015,09,14,07,50,10.10
2015,09,14,07,51,10.10
2015,09,14,07,52,10.10
2015,09,14,07,53,10.10
2015,09,14,07,54,10.10
2015,09,14,07,55,10.10
2015,09,14,07,56,10.10
2015,09,14,07,57,10.10
2015,09,14,07,58,10.10
2015,09,14,07,59,10.10
2015,09,14,08,00,10.20
2015,09,14,08,01,10.20
2015,09,14,08,02,10.20
2015,09,14,08,03,10.20
2015,09,14,08,04,10.30
2015,09,14,08,05,10.30
2015,09,14,08,06,10.30
2015,09,14,08,07,10.40
2015,09,14,08,08,10.40
2015,09,14,08,09,10.40
2015,09,14,08,10,10.40
2015,09,14,08,11,10.40
2015,09,14,08,12,10.40
2015,09,14,08,13,10.50
2015,09,14,08,14,10.60
2015,09,14,08,15,10.60
2015,09,14,08,16,10.60
2015,09,14,08,17,10.60
2015,09,14,08,18,10.70
2015,09,14,08,19,10.70
2015,09,14,08,20,10.80
2015,09,14,08,21,10.80
2015,09,14,08,22,10.80
2015,09,14,08,23,10.80
2015,09,14,08,24,10.90
2015,09,14,08,25,10.90
2015,09,14,08,26,10.90
2015,09,14,08,27,10.90
2015,09,14,08,28,10.90
2015,09,14,08,29,10.90
2015,09,14,08,30,10.90
2015,09,14,08,31,11.00
2015,09,14,08,32,11.10
2015,09,14,08,33,11.10
2015,09,14,08,34,11.10
2015,09,14,08,35,11.10
2015,09,14,08,36,11.10
2015,09,14,08,37,11.10
2015,09,14,08,38,11.10
2015,09,14,08,39,11.10
2015,09,14,08,40,11.10
2015,09,14,08,41,11.20
2015,09,14,08,42,11.20
2015,09,14,08,43,11.10
2015,09,14,08,44,11.20
2015,09,14,08,45,11.20
2015,09,14,08,46,11.20
2015,09,14,08,47,11.20
2015,09,14,08,48,11.20
2015,09,14,08,49,11.20
2015,09,14,08,50,11.20
2015,09,14,08,51,11.30
2015,09,14,08,52,11.30
2015,09,14,08,53,11.30
2015,09,14,08,54,11.30
2015,09,14,08,55,11.30
2015,09,14,08,56,11.30
2015,09,14,08,57,11.40
2015,09,14,08,58,11.40
2015,09,14,08,59,11.40
2015,09,14,09,00,11.40
2015,09,14,09,01,11.40
2015,09,14,09,02,11.40
2015,09,14,09,03,11.40
2015,09,14,09,04,11.40
2015,09,14,09,05,11.40
2015,09,14,09,06,11.40
2015,09,14,09,07,11.40
2015,09,14,09,08,11.40
2015,09,14,09,09,11.40
2015,09,14,09,10,11.40
2015,09,14,09,11,11.40
2015,09,14,09,12,11.50
2015,09,14,09,13,11.60
2015,09,14,09,14,11.60
2015,09,14,09,15,11.60
2015,09,14,09,16,11.60
2015,09,14,09,17,11.60
2015,09,14,09,18,11.60
2015,09,14,09,19,11.60
2015,09,14,09,20,11.60
2015,09,14,09,21,11.60
2015,09,14,09,22,11.60
2015,09,14,09,23,11.70
2015,09,14,09,24,11.80
2015,09,14,09,25,11.80
2015,09,14,09,26,11.80
2015,09,14,09,27,11.80
2015,09,14,09,28,11.80
2015,09,14,09,29,11.80
2015,09,14,09,30,11.80
2015,09,14,09,31,11.90
2015,09,14,09,32,11.90
2015,09,14,09,33,11.90
2015,09,14,09,34,11.90
2015,09,14,09,35,12.00
2015,09,14,09,36,12.00
2015,09,14,09,37,12.00
2015,09,14,09,38,12.00
2015,09,14,09,39,11.90
2015,09,14,09,40,12.00
2015,09,14,09,41,12.00
2015,09,14,09,42,12.00
2015,09,14,09,43,12.00
2015,09,14,09,44,12.10
2015,09,14,09,45,12.10
2015,09,14,09,46,12.20
2015,09,14,09,47,12.20
2015,09,14,09,48,12.20
2015,09,14,09,49,12.10
2015,09,14,09,50,12.20
2015,09,14,09,51,12.20
2015,09,14,09,52,12.30
2015,09,14,09,53,12.30
2015,09,14,09,54,12.30
2015,09,14,09,55,12.30
2015,09,14,09,56,12.30
2015,09,14,09,57,12.30
2015,09,14,09,58,12.30
2015,09,14,09,59,12.40
2015,09,14,10,00,12.40
2015,09,14,10,01,12.40
2015,09,14,10,02,12.40
2015,09,14,10,03,12.40
2015,09,14,10,04,12.40
2015,09,14,10,05,12.30
2015,09,14,10,06,12.30
2015,09,14,10,07,12.30
2015,09,14,10,08,12.30
2015,09,14,10,09,12.30
2015,09,14,10,10,12.30
2015,09,14,10,11,12.30
2015,09,14,10,12,12.30
2015,09,14,10,13,12.30
2015,09,14,10,14,12.30
2015,09,14,10,15,12.30
2015,09,14,10,16,12.30
2015,09,14,10,17,12.30
2015,09,14,10,18,12.40
2015,09,14,10,19,12.40
2015,09,14,10,20,12.30
2015,09,14,10,21,12.30
2015,09,14,10,22,12.40
2015,09,14,10,23,12.40
2015,09,14,10,24,12.40
2015,09,14,10,25,12.40
2015,09,14,10,26,12.40
2015,09,14,10,27,12.40
2015,09,14,10,28,12.50
2015,09,14,10,29,12.50
2015,09,14,10,30,12.50
2015,09,14,10,31,12.60
2015,09,14,10,32,12.60
2015,09,14,10,33,12.60
2015,09,14,10,34,12.60
2015,09,14,10,35,12.60
2015,09,14,10,36,12.60
2015,09,14,10,37,12.60
2015,09,14,10,38,12.70
2015,09,14,10,39,12.70
2015,09,14,10,40,12.70
2015,09,14,10,41,12.70
2015,09,14,10,42,12.80
2015,09,14,10,43,12.80
2015,09,14,10,44,12.80
2015,09,14,10,45,12.80
2015,09,14,10,46,12.80
2015,09,14,10,47,12.80
2015,09,14,10,48,12.80
2015,09,14,10,49,12.80
2015,09,14,10,50,12.80
2015,09,14,10,51,12.80
2015,09,14,10,52,12.80
2015,09,14,10,53,12.80
2015,09,14,10,54,12.90
2015,09,14,10,55,12.90
2015,09,14,10,56,12.90
2015,09,14,10,57,13.00
2015,09,14,10,58,12.90
2015,09,14,10,59,12.90
2015,09,14,11,00,12.90
2015,09,14,11,01,13.00
2015,09,14,11,02,13.00
2015,09,14,11,03,13.00
2015,09,14,11,04,13.10
2015,09,14,11,05,13.10
2015,09,14,11,06,13.20
2015,09,14,11,07,13.20
2015,09,14,11,08,13.30
2015,09,14,11,09,13.30
2015,09,14,11,10,13.30
2015,09,14,11,11,13.30
2015,09,14,11,12,13.30
2015,09,14,11,13,13.30
2015,09,14,11,14,13.40
2015,09,14,11,15,13.40
2015,09,14,11,16,13.50
2015,09,14,11,17,13.60
2015,09,14,11,18,13.60
2015,09,14,11,19,13.60
2015,09,14,11,20,13.40
2015,09,14,11,21,13.40
2015,09,14,11,22,13.50
2015,09,14,11,23,13.50
2015,09,14,11,24,13.60
2015,09,14,11,25,13.60
2015,09,14,11,26,13.70
2015,09,14,11,27,13.70
2015,09,14,11,28,13.70
2015,09,14,11,29,13.70
2015,09,14,11,30,13.70
2015,09,14,11,31,13.70
2015,09,14,11,32,13.60
2015,09,14,11,33,13.60
2015,09,14,11,34,13.50
2015,09,14,11,35,13.50
2015,09,14,11,36,13.50
2015,09,14,11,37,13.40
2015,09,14,11,38,13.40
2015,09,14,11,39,13.40
2015,09,14,11,40,13.30
2015,09,14,11,41,13.30
2015,09,14,11,42,13.40
2015,09,14,11,43,13.40
2015,09,14,11,44,13.40
2015,09,14,11,45,13.40
2015,09,14,11,46,13.40
2015,09,14,11,47,13.40
2015,09,14,11,48,13.30
2015,09,14,11,49,13.30
2015,09,14,11,50,13.30
2015,09,14,11,51,13.30
2015,09,14,11,52,13.40
2015,09,14,11,53,13.40
2015,09,14,11,54,13.50
2015,09,14,11,55,13.60
2015,09,14,11,56,13.70
2015,09,14,11,57,13.70
2015,09,14,11,58,13.70
2015,09,14,11,59,13.70
2015,09,14,12,00,13.70
2015,09,14,12,01,13.70
2015,09,14,12,02,13.80
2015,09,14,12,03,13.90
2015,09,14,12,04,13.90
2015,09,14,12,05,14.00
2015,09,14,12,06,14.10
2015,09,14,12,07,14.20
2015,09,14,12,08,14.20
2015,09,14,12,09,14.20
2015,09,14,12,10,14.20
2015,09,14,12,11,14.20
2015,09,14,12,12,14.20
2015,09,14,12,13,14.20
2015,09,14,12,14,14.20
2015,09,14,12,15,14.20
2015,09,14,12,16,14.30
2015,09,14,12,17,14.30
2015,09,14,12,18,14.20
2015,09,14,12,19,14.10
2015,09,14,12,20,14.10
2015,09,14,12,21,14.10
2015,09,14,12,22,14.10
2015,09,14,12,23,14.10
2015,09,14,12,24,14.10
2015,09,14,12,25,14.10
2015,09,14,12,26,14.10
2015,09,14,12,27,14.10
2015,09,14,12,28,14.20
2015,09,14,12,29,14.20
2015,09,14,12,30,14.20
2015,09,14,12,31,14.20
2015,09,14,12,32,14.20
2015,09,14,12,33,14.20
2015,09,14,12,34,14.30
2015,09,14,12,35,14.30
2015,09,14,12,36,14.20
2015,09,14,12,37,14.20
2015,09,14,12,38,14.20
2015,09,14,12,39,14.20
2015,09,14,12,40,14.20
2015,09,14,12,41,14.20
2015,09,14,12,42,14.20
2015,09,14,12,43,14.20
2015,09,14,12,44,14.20
2015,09,14,12,45,14.20
2015,09,14,12,46,14.30
2015,09,14,12,47,14.30
2015,09,14,12,48,14.40
2015,09,14,12,49,14.50
2015,09,14,12,50,14.50
2015,09,14,12,51,14.50
2015,09,14,12,52,14.40
2015,09,14,12,53,14.50
2015,09,14,12,54,14.50
2015,09,14,12,55,14.50
2015,09,14,12,56,14.50
2015,09,14,12,57,14.50
2015,09,14,12,58,14.40
2015,09,14,12,59,14.20
2015,09,14,13,00,14.10
2015,09,14,13,01,14.10
2015,09,14,13,02,14.10
2015,09,14,13,03,14.00
2015,09,14,13,04,14.00
2015,09,14,13,05,14.10
2015,09,14,13,06,14.10
2015,09,14,13,07,14.20
2015,09,14,13,08,14.20
2015,09,14,13,09,14.20
2015,09,14,13,10,14.20
2015,09,14,13,11,14.10
2015,09,14,13,12,14.00
2015,09,14,13,13,14.00
2015,09,14,13,14,14.00
2015,09,14,13,15,13.90
2015,09,14,13,16,13.90
2015,09,14,13,17,13.90
2015,09,14,13,18,13.90
2015,09,14,13,19,13.90
2015,09,14,13,20,13.90
2015,09,14,13,21,13.90
2015,09,14,13,22,13.90
2015,09,14,13,23,14.00
2015,09,14,13,24,14.00
2015,09,14,13,25,14.10
2015,09,14,13,26,14.10
2015,09,14,13,27,14.10
2015,09,14,13,28,14.10
2015,09,14,13,29,14.10
2015,09,14,13,30,14.10
2015,09,14,13,31,14.00
2015,09,14,13,32,14.00
2015,09,14,13,33,14.00
2015,09,14,13,34,13.90
2015,09,14,13,35,13.90
2015,09,14,13,36,13.90
2015,09,14,13,37,13.90
2015,09,14,13,38,13.90
2015,09,14,13,39,13.90
2015,09,14,13,40,13.90
2015,09,14,13,41,13.90
2015,09,14,13,42,13.90
2015,09,14,13,43,13.90
2015,09,14,13,44,13.90
2015,09,14,13,45,13.90
